DW3795 Weather Reports


Display with metric or nautical units.
time (UTC)temp
F
wind
direction
speed
MPH
gust
MPH
rain 1hr
in
rain 24hr
in
rain mn
in
humidity
%
barometer
mb
20260831221509 90 164 0.0 7.0 0.00 0.00 0.00 61 1016.8
20260831220009 91 180 3.0 8.0 0.00 0.00 0.00 60 1016.8
20260831214515 91 179 2.0 5.0 0.00 0.00 0.00 62 1016.8
20260831213008 93 150 0.0 4.0 0.00 0.00 0.00 57 1016.8
20260831211508 95 194 0.0 0.0 0.00 0.00 0.00 53 1016.9
20260831210013 96 194 3.0 4.0 0.00 0.00 0.00 50 1016.9
20260831204511 97 176 1.0 5.0 0.00 0.00 0.00 47 1017.0
20260831203004 97 159 0.0 3.0 0.00 0.00 0.00 47 1017.1
20260831201600 96 169 1.0 5.0 0.00 0.00 0.00 47 1017.3
20260831200058 95 5 1.0 4.0 0.00 0.00 0.00 59 1017.3
20260831194631 93 298 0.0 2.0 0.00 0.00 0.00 62 1017.4
20260831193055 93 298 0.0 1.0 0.00 0.00 0.00 56 1017.5
20260831191553 93 297 0.0 2.0 0.00 0.00 0.00 63 1017.8
20260831190058 92 295 0.0 1.0 0.00 0.00 0.00 64 1018.1
20260831184612 92 294 1.0 2.0 0.00 0.00 0.00 61 1018.1
20260831183101 93 293 0.0 3.0 0.00 0.00 0.00 58 1018.3
20260831181648 94 289 0.0 3.0 0.00 0.00 0.00 54 1018.3
20260831180048 95 179 0.0 5.0 0.00 0.00 0.00 53 1018.4
20260831174550 96 171 0.0 5.0 0.00 0.00 0.00 54 1018.5
20260831173147 96 165 3.0 8.0 0.00 0.00 0.00 52 1018.6
20260831171540 95 319 1.0 7.0 0.00 0.00 0.00 54 1018.8
20260831170036 94 337 1.0 4.0 0.00 0.00 0.00 60 1019.1
20260831164535 93 5 0.0 0.0 0.00 0.00 0.00 59 1019.1
20260831163030 93 339 0.0 0.0 0.00 0.00 0.00 57 1019.3
20260831161526 92 346 0.0 0.0 0.00 0.00 0.00 60 1019.2
20260831160028 91 303 0.0 0.0 0.00 0.00 0.00 62 1019.4
20260831154521 89 56 1.0 4.0 0.00 0.00 0.00 65 1019.5
20260831153015 88 258 3.0 6.0 0.00 0.00 0.00 66 1019.6
20260831151510 87 183 2.0 5.0 0.00 0.00 0.00 69 1019.7
20260831150013 85 181 3.0 6.0 0.00 0.00 0.00 72 1019.8
20260831144503 84 227 3.0 5.0 0.00 0.00 0.00 74 1019.8
20260831143059 83 298 1.0 4.0 0.00 0.00 0.00 79 1019.8
20260831141554 81 188 1.0 4.0 0.00 0.00 0.00 82 1019.8
20260831140049 79 184 3.0 6.0 0.00 0.00 0.00 84 1019.9
20260831134552 77 169 0.0 3.0 0.00 0.00 0.00 91 1019.7
20260831133041 75 263 0.0 4.0 0.00 0.00 0.00 94 1019.8
20260831131540 73 127 0.0 2.0 0.00 0.00 0.00 95 1019.9
20260831130039 73 180 1.0 5.0 0.00 0.00 0.00 96 1020.0
20260831124532 72 177 0.0 6.0 0.00 0.00 0.00 96 1020.0
20260831123029 71 229 0.0 0.0 0.00 0.00 0.00 96 1019.8
20260831121534 70 193 0.0 0.0 0.00 0.00 0.00 96 1019.8
20260831120028 68 193 0.0 0.0 0.00 0.00 0.00 95 1019.9
20260831114530 68 193 0.0 0.0 0.00 0.00 0.00 95 1019.9
20260831113025 67 193 0.0 0.0 0.00 0.00 0.00 95 1019.8
20260831111523 68 193 0.0 0.0 0.00 0.00 0.00 95 1019.9
20260831110023 68 193 0.0 0.0 0.00 0.00 0.00 95 1019.9
20260831104523 68 193 0.0 0.0 0.00 0.00 0.00 95 1019.7
20260831103020 68 193 0.0 0.0 0.00 0.00 0.00 95 1019.5
20260831101520 68 193 0.0 0.0 0.00 0.00 0.00 95 1019.4
20260831100018 68 193 0.0 0.0 0.00 0.00 0.00 94 1019.3
20260831094522 68 193 0.0 0.0 0.00 0.00 0.00 94 1019.5
20260831093017 68 193 0.0 0.0 0.00 0.00 0.00 94 1019.3
20260831091517 68 193 0.0 0.0 0.00 0.00 0.00 94 1019.3
20260831090016 68 193 0.0 0.0 0.00 0.00 0.00 94 1019.3
20260831084525 69 193 0.0 0.0 0.00 0.00 0.00 94 1019.3
20260831083012 69 193 0.0 0.0 0.00 0.00 0.00 94 1019.3
20260831081520 69 193 0.0 0.0 0.00 0.00 0.00 94 1019.4
20260831080009 69 193 0.0 0.0 0.00 0.00 0.00 94 1019.4
20260831074529 69 193 0.0 0.0 0.00 0.00 0.00 93 1019.3
20260831073011 69 193 0.0 0.0 0.00 0.00 0.00 93 1019.3
20260831071505 70 193 0.0 0.0 0.00 0.00 0.00 93 1019.2
20260831070007 70 193 0.0 0.0 0.00 0.00 0.00 93 1019.3
20260831064509 70 193 0.0 0.0 0.00 0.00 0.00 93 1019.2
20260831063006 70 193 0.0 0.0 0.00 0.00 0.00 93 1019.4
20260831061602 70 193 0.0 0.0 0.00 0.00 0.00 92 1019.4
20260831060113 70 193 0.0 0.0 0.00 0.00 0.00 92 1019.5
20260831054600 71 193 0.0 0.0 0.00 0.00 0.00 92 1019.6
20260831053057 71 193 0.0 0.0 0.00 0.00 0.00 92 1019.5
20260831051555 71 193 0.0 0.0 0.00 0.00 0.00 92 1019.6
20260831050122 71 193 0.0 0.0 0.00 0.00 0.00 91 1019.6
20260831044552 72 193 0.0 0.0 0.00 0.00 0.00 91 1019.7
20260831043051 72 193 0.0 0.0 0.00 0.00 0.00 91 1019.7
20260831041549 72 193 0.0 0.0 0.00 0.00 0.00 90 1019.9
20260831040051 73 193 0.0 0.0 0.00 0.00 0.00 90 1020.0
20260831034543 73 193 0.0 0.0 0.00 0.00 0.00 89 1019.8
20260831033043 73 193 0.0 0.0 0.00 0.00 0.00 88 1019.9
20260831031541 74 193 0.0 0.0 0.00 0.00 0.00 88 1020.0
20260831030050 74 193 0.0 0.0 0.00 0.00 0.00 87 1020.3
20260831024541 75 193 0.0 0.0 0.00 0.00 0.00 86 1020.3
20260831023041 75 193 0.0 0.0 0.00 0.00 0.00 86 1020.3
20260831021540 76 193 0.0 0.0 0.00 0.00 0.00 85 1020.0
20260831020039 77 193 0.0 0.0 0.00 0.00 0.00 83 1019.9
20260831014546 77 193 0.0 0.0 0.00 0.00 0.00 82 1019.9
20260831013039 78 185 0.0 1.0 0.00 0.00 0.00 80 1019.9
20260831011540 79 185 0.0 3.0 0.00 0.00 0.00 79 1019.8
20260831010139 79 138 2.0 4.0 0.00 0.00 0.00 78 1019.7
20260831004537 80 178 1.0 4.0 0.00 0.00 0.00 76 1019.5
20260831001536 82 228 0.0 0.0 0.00 0.00 0.00 73 1019.2
20260831000048 83 216 0.0 0.0 0.00 0.00 0.00 71 1019.1
20260830234533 84 218 0.0 0.0 0.00 0.00 0.00 69 1018.9
20260830233052 85 170 0.0 2.0 0.00 0.00 0.00 68 1019.0
20260830231533 85 192 1.0 4.0 0.00 0.00 0.00 66 1019.0
20260830230032 86 204 0.0 5.0 0.00 0.00 0.00 66 1019.0
20260830224532 86 196 1.0 6.0 0.00 0.00 0.00 64 1019.0
20260830223032 87 254 1.0 7.0 0.00 0.00 0.00 65 1018.9